Other Surface Observations
Issued by NWS Charleston, SC

Home | Current Version | Previous Version | Text Only | Print | Product List | Glossary On
Versions: 1 2 3 4 5 6 7 8 9 10 11 12 13 14 15 16 17 18 19 20 21 22 23 24 25 26 27 28 29 30 31 32 33 34 35 36 37 38 39 40 41 42 43 44 45 46 47 48 49 50
000
SXUS52 KCHS 031127
OSOCHS

MARINE OBSERVATIONS
NATIONAL WEATHER SERVICE CHARLESTON SC
700 AM EDT FRI JUL 03 2015

...DOWNTOWN CHARLESTON AND HARBOR...

CITY           SKY/WX    TMP DP  RH WIND       PRES   REMARKS
WATERFRONT PRK   N/A     75  72  90 SW8       29.99R
FORT JOHNSON   NOT AVBL

...LAKE MOULTRIE...

CITY           SKY/WX    TMP DP  RH WIND       PRES   REMARKS
PINOPOLIS      NOT AVBL

...LAKE AND SUPPLEMENTAL COASTAL OBSERVATIONS...

STATION/POSITION TIME  TEMP    WIND        PRES    WAVE   SWELL
                       AIR SEA DIR/SP/G            HT/PER HT/PER/DIR
                 (UTC) (F)     (DEG/KT/KT) (MB)    (FT/S) (FT/S/D)
FORT PULASKI     1100   74 84  220/  7/ 11 1017.6R
SAPELO ISLAND    1100   74     230/  9     1018.0R
UPR LAKE MARION  NOT AVBL
WINYAH BAY       1000   73     240/  7     1014.0S
LAKE MURRAY      1100   75     220/ 11/ 14 1013.5S
ACE BASIN NERRS  NOT AVBL


...C-MAN AND BUOY OBSERVATIONS...

STATION/POSITION TIME  TEMP    WIND        PRES    WAVE   SWELL
                       AIR SEA DIR/SP/G            HT/PER HT/PER/DIR
                 (UTC) (F)     (DEG/KT/KT) (MB)    (FT/S) (FT/S/D)
BUOY 41004       1050   80 81  230/ 19/ 21 1015.7R   5/ 6   2/11
BUOY 41008       1050   78 79  240/ 14/ 16 1017.6R   3/ 8   2/130/ 8
FOLLY BEACH CMAN 1100   77     230/  9/ 12 1016.5R
CAPERS NS BUOY   1008   80     240/ 19/ 27 1015.9R
FRIPP NS BUOY    1000   79     250/ 19/ 23 1016.0R
5E ST. MARYS GA  1021      76                N/A     2/ 8


STATION/POSITION TIME  TEMP    WIND        PRES    WAVE   SWELL
                       AIR SEA DIR/SP/G            HT/PER HT/PER/DIR
                 (UTC) (F)     (DEG/KT/KT) (MB)    (FT/S) (FT/S/D)
FRYING PAN BUOY  1050   80 79  230/ 19/ 23 1015.5R   5/ 6   2/100/ 8
BUOY 41025       1050   78 83  270/ 19/ 21 1013.8R   6/ 7   3/ 10/16
CAPE LOOKOUT NC  1100   76     250/ 13/ 16 1014.5R
BUOY 41002       1050   82 80  230/ 17/ 21 1017.4R   6/ 5   2/150/ 9
BUOY 41010       1020   83 84  200/ 10/ 12 1018.6R
ST AUGUSTINE FL  1100   74 73  230/  7/  8 1019.3R

$$



USA.gov is the U.S. government's official web portal to all federal, state and local government web resources and services.